Don Mariano — IVEX — position and weather

sailwx.info

Track history (hours):
 
Tides and Currents Weather Stations Pressure Air Temp Water Temp Dewpoint Dewpoint Depression Visibility Wind Speed Wind Dir Waves Ship Positions

Don Mariano

Last reported at 2014-Jul-29 06:28 UTC. Time now 2014-Jul-29 10:49 UTC.
Position N 40°43' E 014°29'.

Length 40 m.

Type: Other ship. MMSI: 247281300.

Date/timePositionNaut miles runAvg speedWind from/ knotsBaromVisibWave heightAir tempDewpointWater temp
2014-Jul-29 06:28N 40°43' E 014°29'0 0.1
2014-Jul-29 05:03N 40°43' E 014°29'0 0.0
2014-Jul-28 13:32N 40°43' E 014°29'0 0.0
2014-Jul-28 11:30N 40°43' E 014°29'0 0.1
2014-Jul-28 09:33N 40°43' E 014°28'0 0.0
2014-Jul-28 05:10N 40°43' E 014°29'1 0.0
2014-Jul-26 12:09N 40°42' E 014°28'1 1.4
2014-Jul-26 11:29N 40°43' E 014°29'0 0.0
2014-Jul-26 10:29N 40°43' E 014°29'0 0.1
2014-Jul-26 09:04N 40°43' E 014°28'0 0.0
2014-Jul-26 05:10N 40°43' E 014°29'1 0.1
2014-Jul-25 14:09N 40°42' E 014°28'1 1.5
2014-Jul-25 13:33N 40°43' E 014°28'0 0.0
2014-Jul-25 12:06N 40°43' E 014°29'0 0.2
2014-Jul-25 11:14N 40°43' E 014°29'0 0.0
2014-Jul-25 10:32N 40°43' E 014°29'0 0.0
2014-Jul-25 07:25N 40°43' E 014°29'0 0.1
2014-Jul-25 05:06N 40°43' E 014°29'1 0.1
2014-Jul-24 14:04N 40°42' E 014°28'1 1.1
2014-Jul-24 13:10N 40°43' E 014°29'0 0.0
2014-Jul-24 12:19N 40°43' E 014°29'0 0.2
2014-Jul-24 11:33N 40°43' E 014°29'0 0.0
2014-Jul-24 10:27N 40°43' E 014°29'0 0.0
2014-Jul-24 09:33N 40°43' E 014°29'0 0.1
2014-Jul-24 07:11N 40°43' E 014°29'0 0.3
2014-Jul-24 06:31N 40°43' E 014°29'0 0.0
2014-Jul-24 05:28N 40°43' E 014°29'1 0.8
2014-Jul-24 04:24N 40°42' E 014°28'0 0.0
2014-Jul-24 03:33N 40°42' E 014°28'0 0.0
2014-Jul-24 02:33N 40°42' E 014°28'0 0.0
2014-Jul-24 01:33N 40°42' E 014°28'0 0.0
2014-Jul-24 00:33N 40°42' E 014°28'0 0.0
2014-Jul-23 23:33N 40°42' E 014°28'0 0.0
2014-Jul-23 22:30N 40°42' E 014°28'0 0.0
2014-Jul-23 21:30N 40°42' E 014°28'0 0.0
2014-Jul-23 20:30N 40°42' E 014°28'0 0.0
2014-Jul-23 19:21N 40°42' E 014°28'0 0.0
2014-Jul-23 18:33N 40°42' E 014°28'0 0.0
2014-Jul-23 17:15N 40°42' E 014°28'0 0.0
2014-Jul-23 16:24N 40°42' E 014°28'0 0.0
2014-Jul-23 15:09N 40°42' E 014°28'0 0.0
2014-Jul-23 13:33N 40°42' E 014°28'0 0.0
2014-Jul-23 12:09N 40°42' E 014°28'0 0.0
2014-Jul-23 11:12N 40°42' E 014°28'0 0.0
2014-Jul-23 09:33N 40°42' E 014°28'0 0.0
2014-Jul-23 08:24N 40°42' E 014°28'0 0.0
2014-Jul-23 07:27N 40°42' E 014°28'0 0.0
2014-Jul-22 13:14N 40°42' E 014°28'5 6.6
2014-Jul-22 12:32N 40°45' E 014°24'6 6.5
2014-Jul-22 11:32N 40°49' E 014°17'  
2014-Jul-19 12:33N 40°50' E 014°17'8 6.7
2014-Jul-19 11:20N 40°44' E 014°25'3 4.3
2014-Jul-19 10:33N 40°43' E 014°29'0 0.0
2014-Jul-19 09:24N 40°43' E 014°29'0 0.0
2014-Jul-19 08:03N 40°43' E 014°29'  
Track history (hours):
 
Tides and Currents Weather Stations Pressure Air Temp Water Temp Dewpoint Dewpoint Depression Visibility Wind Speed Wind Dir Waves Ship Positions

Don Mariano

Last reported at 2014-Jul-29 06:28 UTC. Time now 2014-Jul-29 10:49 UTC.
Position N 40°43' E 014°29'.

Length 40 m.

Type: Other ship. MMSI: 247281300.

Date/timePositionNaut miles runAvg speedWind from/ knotsBaromVisibWave heightAir tempDewpointWater temp
2014-Jul-29 06:28N 40°43' E 014°29'0 0.1
2014-Jul-29 05:03N 40°43' E 014°29'0 0.0
2014-Jul-28 13:32N 40°43' E 014°29'0 0.0
2014-Jul-28 11:30N 40°43' E 014°29'0 0.1
2014-Jul-28 09:33N 40°43' E 014°28'0 0.0
2014-Jul-28 05:10N 40°43' E 014°29'1 0.0
2014-Jul-26 12:09N 40°42' E 014°28'1 1.4
2014-Jul-26 11:29N 40°43' E 014°29'0 0.0
2014-Jul-26 10:29N 40°43' E 014°29'0 0.1
2014-Jul-26 09:04N 40°43' E 014°28'0 0.0
2014-Jul-26 05:10N 40°43' E 014°29'1 0.1
2014-Jul-25 14:09N 40°42' E 014°28'1 1.5
2014-Jul-25 13:33N 40°43' E 014°28'0 0.0
2014-Jul-25 12:06N 40°43' E 014°29'0 0.2
2014-Jul-25 11:14N 40°43' E 014°29'0 0.0
2014-Jul-25 10:32N 40°43' E 014°29'0 0.0
2014-Jul-25 07:25N 40°43' E 014°29'0 0.1
2014-Jul-25 05:06N 40°43' E 014°29'1 0.1
2014-Jul-24 14:04N 40°42' E 014°28'1 1.1
2014-Jul-24 13:10N 40°43' E 014°29'0 0.0
2014-Jul-24 12:19N 40°43' E 014°29'0 0.2
2014-Jul-24 11:33N 40°43' E 014°29'0 0.0
2014-Jul-24 10:27N 40°43' E 014°29'0 0.0
2014-Jul-24 09:33N 40°43' E 014°29'0 0.1
2014-Jul-24 07:11N 40°43' E 014°29'0 0.3
2014-Jul-24 06:31N 40°43' E 014°29'0 0.0
2014-Jul-24 05:28N 40°43' E 014°29'1 0.8
2014-Jul-24 04:24N 40°42' E 014°28'0 0.0
2014-Jul-24 03:33N 40°42' E 014°28'0 0.0
2014-Jul-24 02:33N 40°42' E 014°28'0 0.0
2014-Jul-24 01:33N 40°42' E 014°28'0 0.0
2014-Jul-24 00:33N 40°42' E 014°28'0 0.0
2014-Jul-23 23:33N 40°42' E 014°28'0 0.0
2014-Jul-23 22:30N 40°42' E 014°28'0 0.0
2014-Jul-23 21:30N 40°42' E 014°28'0 0.0
2014-Jul-23 20:30N 40°42' E 014°28'0 0.0
2014-Jul-23 19:21N 40°42' E 014°28'0 0.0
2014-Jul-23 18:33N 40°42' E 014°28'0 0.0
2014-Jul-23 17:15N 40°42' E 014°28'0 0.0
2014-Jul-23 16:24N 40°42' E 014°28'0 0.0
2014-Jul-23 15:09N 40°42' E 014°28'0 0.0
2014-Jul-23 13:33N 40°42' E 014°28'0 0.0
2014-Jul-23 12:09N 40°42' E 014°28'0 0.0
2014-Jul-23 11:12N 40°42' E 014°28'0 0.0
2014-Jul-23 09:33N 40°42' E 014°28'0 0.0
2014-Jul-23 08:24N 40°42' E 014°28'0 0.0
2014-Jul-23 07:27N 40°42' E 014°28'0 0.0
2014-Jul-22 13:14N 40°42' E 014°28'5 6.6
2014-Jul-22 12:32N 40°45' E 014°24'6 6.5
2014-Jul-22 11:32N 40°49' E 014°17'  
2014-Jul-19 12:33N 40°50' E 014°17'8 6.7
2014-Jul-19 11:20N 40°44' E 014°25'3 4.3
2014-Jul-19 10:33N 40°43' E 014°29'0 0.0
2014-Jul-19 09:24N 40°43' E 014°29'0 0.0
2014-Jul-19 08:03N 40°43' E 014°29'  

Dump ship's entire track history